Regional Weather Roundup
Issued by NWS

Home | Current Version | Previous Version | Graphics & Text | Print | Product List | Glossary Off
Versions: 1 2 3 4 5 6 7 8 9 10 11 12 13 14 15 16 17 18 19 20 21 22 23 24 25 26 27 28 29 30 31 32 33 34 35 36 37 38 39 40 41 42 43 44 45 46 47 48 49 50

000
ASUS43 KMPX 021701
RWRMN
WEATHER ROUNDUP FOR MINNESOTA
NATIONAL WEATHER SERVICE TWIN CITIES/CHANHASSEN MN
1100 AM CST MON MAR 02 2015


NOTE: "FAIR" INDICATES FEW OR NO CLOUDS BELOW 12,000 FEET WITH NO
SIGNIFICANT WEATHER AND/OR OBSTRUCTIONS TO VISIBILITY. N/A MEANS
CURRENT SKY AND/OR WEATHER CONDITIONS ARE NOT AVAILABLE.

MNZ060>063-068>070-021800-
   Twin Cities Metro

CITY           SKY/WX    TMP DP  RH WIND       PRES   REMARKS
TWIN CITIES    MOSUNNY   21   6  52 S8        30.46F WCI  11
ST PAUL        SUNNY     23   5  46 S6        30.48F WCI  16
CRYSTAL        SUNNY     23   5  46 S7        30.45F WCI  15
BLAINE         MOSUNNY   25   9  50 S8        30.45F WCI  16
EDEN PRAIRIE   SUNNY     22   8  55 S8        30.46F WCI  12
SOUTH ST PAUL  SUNNY     23   9  55 SE8       30.47F WCI  14
LAKE ELMO      FAIR      23   9  54 SW5       30.47F WCI  17
$$
MNZ001>005-007-008-013>017-022>024-027-028-021800-
   Northwest Minnesota

CITY           SKY/WX    TMP DP  RH WIND       PRES   REMARKS
BEMIDJI        SUNNY     20  11  66 SW12      30.29F WCI   8
HALLOCK        MOSUNNY    9   5  85 SE16      30.23F WCI  -9
ROSEAU         SUNNY     12   9  85 S14       30.25F WCI  -3
WARROAD        SUNNY     16  10  79 S5        30.26F WCI   9
THIEF RVR FALL SUNNY     10  10 100 S9        30.27F WCI  -2
CROOKSTON      SUNNY     18  10  73 S13       30.28F WCI   4
FOSSTON        SUNNY     16   9  73 S13       30.29F WCI   2
DETROIT LAKES  SUNNY     21   9  58 S13       30.31F WCI   9
MOORHEAD       SUNNY     21  10  63 S16       30.31F WCI   7
PARK RAPIDS    SUNNY     20   8  60 SW12      30.31F WCI   8
MAHNOMEN       FAIR      16   9  72 S12       30.30F WCI   3
$$
MNZ006-009>011-018-025>026-021800-
   North Central Minnesota

CITY           SKY/WX    TMP DP  RH WIND       PRES   REMARKS
BAUDETTE       SUNNY     15   7  70 S10       30.26F WCI   2
FLAG ISLAND    SUNNY      1  -2  85 S13       30.25F WCI -16
INTL FALLS     SUNNY     16   4  59 SW9       30.31R WCI   4
WASKISH        SUNNY     19  10  68 CALM      30.30F
BIG FORK       SUNNY     19  10  68 S7        30.32F WCI  10
LONGVILLE      SUNNY     19   9  63 SW6       30.34F WCI  11
GRAND RAPIDS   SUNNY     18  10  73 SW9       30.33F WCI   6
CRANE LAKE     SUNNY     18   3  53 S6        30.35R WCI   9
ORR            SUNNY     19   3  49 S6        30.30S WCI  11
COOK           SUNNY     18   7  62 S8        30.34S WCI   7
WALKER         FAIR      19   8  62 SW12      30.31F WCI   7
$$
MNZ012-019>021-037-021800-
   Northeast Minnesota

CITY           SKY/WX    TMP DP  RH WIND       PRES   REMARKS
DULUTH         SUNNY     20   8  60 SW14      30.36S WCI   7
ELY            SUNNY     16   5  62 S9        30.33R WCI   4
HIBBING        SUNNY     19   7  59 W8G17     30.35S WCI   9
EVELETH        SUNNY     18   9  68 SW10      30.36S WCI   6
DULUTH HARBOR  SUNNY     21  10  63 SW12      30.44S WCI   9
TWO HARBORS    SUNNY     25  10  54 W8        30.36S WCI  16
SILVER BAY     SUNNY     25   9  50 SW7       30.35S WCI  17
GRAND MARAIS     N/A     19   9  65 SW12      30.39R WCI   7
G MARAIS ARPRT SUNNY     19  -6  32 W3        30.28R
$$
MNZ029>031-032-039>041-046>048-054>057-064-021800-
   West Central Minnesota

CITY           SKY/WX    TMP DP  RH WIND       PRES   REMARKS
FERGUS FALLS   SUNNY     21   9  58 S16       30.37F WCI   7
WHEATON        SUNNY     21   9  58 SE17G23   30.35F WCI   7
MORRIS         SUNNY     23  10  58 S21       30.35F WCI   8
ALEXANDRIA     SUNNY     19   8  62 S15       30.35F WCI   5
ELBOW LAKE     FAIR      21  11  63 S17       30.34F WCI   7
WADENA         SUNNY     19   7  58 S12       30.33F WCI   7
GLENWOOD       SUNNY     21  10  63 S14       30.37F WCI   8
APPLETON       SUNNY     25   9  50 S13G20    30.38F WCI  13
BENSON         SUNNY     25   9  50 S13       30.39F WCI  13
ORTONVILLE     SUNNY     23   7  50 S14       30.35F WCI  11
MADISON        SUNNY     25  10  54 S14       30.38F WCI  13
WILLMAR        FAIR      23  10  58 S8        30.41F WCI  14
$$
MNZ033>034-036-042>043-049>051-058-059-021800-
   Central Minnesota

CITY           SKY/WX    TMP DP  RH WIND       PRES   REMARKS
ST CLOUD       SUNNY     21   8  57 S6        30.41F WCI  13
SAUK CENTRE    FAIR      23   9  56 S14       30.38F WCI  10
PAYNESVILLE    SUNNY     19   8  60 SE12      30.41S WCI   7
AITKIN         SUNNY     25   7  46 SW9       30.36F WCI  15
PINE RIVER     SUNNY     19   9  63 S9        30.37F WCI   9
BRAINERD       SUNNY     21   7  54 SW12      30.37F WCI   9
STAPLES        SUNNY     21   5  49 CALM      30.35F
LONG PRAIRIE   FAIR      23  10  58 S9        30.37F WCI  13
LITTLE FALLS   SUNNY     23   9  54 S7        30.39F WCI  15
LITCHFIELD     SUNNY     21  12  68 CALM      30.43F
MAPLE LAKE     SUNNY     24  11  60 S7        30.44F WCI  15
$$
MNZ037-044-045-052-053-021800-
   East Central Minnesota

CITY           SKY/WX    TMP DP  RH WIND       PRES   REMARKS
PRINCETON      SUNNY     23   9  54 S5        30.43F WCI  17
MORA           SUNNY     21  10  63 SW7       30.44F WCI  13
CAMBRIDGE      SUNNY     21   9  58 S10       30.43F WCI  10
RUSH CITY      SUNNY     21   8  58 S8        30.45F WCI  11
MOOSE LAKE     SUNNY     23   5  46 SW12      30.38F WCI  12
HINCKLEY       FAIR      23  10  58 SW6       30.43F WCI  16
CLOQUET        SUNNY     19   7  58 SW13      30.37F WCI   7
MCGREGOR       SUNNY     23  10  58 SW9       30.38F WCI  13
$$
MNZ071>073-080-081-089-090-097-098-021800-
   Southwest Minnesota

CITY           SKY/WX    TMP DP  RH WIND       PRES   REMARKS
MONTEVIDEO     SUNNY     25  10  54 S9G17     30.40F WCI  15
GRANITE FALLS  SUNNY     23  12  63 SE14      30.42F WCI  11
CANBY          SUNNY     25  12  56 S12G18    30.37F WCI  15
MARSHALL       SUNNY     25  10  54 S14       30.40F WCI  13
REDWOOD FALLS  SUNNY     22  10  60 S13       30.43F WCI  10
OLIVIA         SUNNY     21  10  63 S10       30.41F WCI  10
PIPESTONE      PTSUNNY   19  12  73 S16       30.35F WCI   5
WINDOM         MOSUNNY   19   9  63 S10       30.42F WCI   8
WORTHINGTON    MOSUNNY   19  10  68 S13G18    30.42F WCI   7
JACKSON        MOSUNNY   21  10  63 S12       30.43F WCI   9
TRACY          SUNNY     23  12  61 S14       30.40F WCI  11
SLAYTON        MOSUNNY   21   9  58 S17       30.38F WCI   7
$$
MNZ065>067-074>077-082>085-091>093-021800-
   South Central Minnesota

CITY           SKY/WX    TMP DP  RH WIND       PRES   REMARKS
MANKATO        SUNNY     19   9  63 S10       30.46F WCI   8
NEW ULM        SUNNY     21  10  63 S8        30.45F WCI  12
ST JAMES       SUNNY     21  12  68 S10       30.47S WCI  10
FAIRMONT       SUNNY     19  12  73 S12       30.45S WCI   7
GLENCOE        SUNNY     23  13  65 S8        30.44F WCI  14
FARIBAULT      SUNNY     19   9  63 S6        30.47F WCI  11
OWATONNA       SUNNY     19   7  58 SE3       30.46F
WASECA         SUNNY     18  12  79 S5        30.49S WCI  11
ALBERT LEA     SUNNY     19   5  53 SE8       30.47S WCI   9
$$
MNZ078>079-086>088-094>096-021800-
   Southeast Minnesota

CITY           SKY/WX    TMP DP  RH WIND       PRES   REMARKS
ROCHESTER      SUNNY     15   8  73 CALM      30.46F
RED WING       SUNNY     21   7  53 S5        30.49F WCI  15
STANTON        SUNNY     21   7  54 S6        30.47F WCI  14
DODGE CENTER   SUNNY     16   9  73 SE3       30.45S
WINONA         SUNNY     23  10  58 CALM      30.52F
AUSTIN         SUNNY     12   9  85 CALM      30.47S
PRESTON        SUNNY     18   7  64 CALM      30.47S
$$
ABBREVIATIONS USED IN REMARKS
   TC - TEMPERATURES IN CELSIUS
  WCI - WIND CHILL INDEX
   HX - HEAT INDEX
  VSB - VISIBILITY
$$


USA.gov is the U.S. government's official web portal to all federal, state and local government web resources and services.